Regional Weather Roundup
Issued by NWS

Home | Current Version | Previous Version | Graphics & Text | Print | Product List | Glossary On
Versions: 1 2 3 4 5 6 7 8 9 10 11 12 13 14 15 16 17 18 19 20 21 22 23 24 25 26 27 28 29 30 31 32 33 34 35 36 37 38 39 40 41 42 43 44 45 46 47 48 49 50
000
ASUS43 KIND 200559
RWRIN

WEATHER ROUNDUP FOR INDIANA
NATIONAL WEATHER SERVICE INDIANAPOLIS IN
200 AM EDT FRI APR 20 2018

NOTE: "FAIR" INDICATES FEW OR NO CLOUDS BELOW 12,000 FEET WITH NO
SIGNIFICANT WEATHER AND/OR OBSTRUCTIONS TO VISIBILITY.

* - STATION DOES NOT REPORT WEATHER SUCH AS PRECIPITATION OR FOG.

+ - STATION NOT QUALITY CONTROLLED BY THE NATIONAL WEATHER SERVICE.
    USE DATA WITH CAUTION...ESPECIALLY DEWPOINT AND RELATIVE
    HUMIDITY OBSERVATIONS.

INZ001>003-010>013-019-020-200700-
NORTHWEST INDIANA

CITY           SKY/WX    TMP DP  RH WIND       PRES   REMARKS
KNOX *+        FAIR      32  21  64 CALM      30.43S
MONTICELLO +   FAIR      31  20  63 N6        30.42S WCI  26
6HR MIN TEMP:  28; 6HR MAX TEMP:  46;


$$

LMZ046-743>745-200700-
SOUTHERN LAKE MICHIGAN

STATION/POSITION TIME  TEMP    WIND        PRES    WAVE
                       AIR SEA DIR/SP/G            HT
                 (UTC) (F)     (DEG/KT/KT) (MB)    (FT)
BURNS HARBOR     0540   41     280/  4/  5 1031.2S
MICHIGAN CITY    0530   39     280/  8/  9   N/A

$$

INZ004-005-014>016-021>024-200700-
NORTH CENTRAL INDIANA

CITY           SKY/WX    TMP DP  RH WIND       PRES   REMARKS
GOSHEN         FAIR      29  21  72 W13       30.42R WCI  19
6HR MIN TEMP:  28; 6HR MAX TEMP:  42;

PERU/GRISSOM   FAIR      33  19  55 NW7       30.41R WCI  27
6HR MIN TEMP:  33; 6HR MAX TEMP:  46;

ROCHESTER +    FAIR      34  25  69 NW6       30.43R WCI  29
SOUTH BEND     FAIR      28  23  81 NW7       30.43R WCI  21
6HR MIN TEMP:  27; 6HR MAX TEMP:  40;

WARSAW +       FAIR      32  23  69 NW7       30.41S WCI  26

$$

INZ006>009-017-018-025>027-200700-
NORTHEAST INDIANA

CITY           SKY/WX    TMP DP  RH WIND       PRES   REMARKS
ANGOLA *+      FAIR      34  23  64 NW6       30.39R WCI  29
FORT WAYNE     FAIR      33  24  69 N8        30.39S WCI  26
6HR MIN TEMP:  33; 6HR MAX TEMP:  47;

KENDALLVILLE + FAIR      34  17  51 NW5       30.40R WCI  30

$$

INZ028-029-035-036-043>045-051>053-200700-
WEST CENTRAL INDIANA

CITY           SKY/WX    TMP DP  RH WIND       PRES   REMARKS
GREENCASTLE +  FAIR      36  16  44 N7        30.41S WCI  30
LAFAYETTE      FAIR      31  23  72 N5        30.42S WCI  26
6HR MIN TEMP:  30; 6HR MAX TEMP:  48;

TERRE HAUTE    FAIR      34  21  59 NW3       30.43R
6HR MIN TEMP:  34; 6HR MAX TEMP:  53;


$$

INZ030>032-037>040-046>048-054>057-064-065-200700-
CENTRAL INDIANA

CITY           SKY/WX    TMP DP  RH WIND       PRES   REMARKS
INDIANAPOLIS   FAIR      36  16  44 N8        30.40R WCI  30
6HR MIN TEMP:  36; 6HR MAX TEMP:  51;

-EAGLE CREEK   FAIR      36  17  46 N7        30.39R WCI  30
6HR MIN TEMP:  36; 6HR MAX TEMP:  52;

KOKOMO +       FAIR      33  22  63 N7        30.42R WCI  27
6HR MIN TEMP:  33; 6HR MAX TEMP:  47;

MT COMFORT *+  FAIR      32  25  74 N8        30.40R WCI  25
SHELBYVILLE    FAIR      36  22  56 N8        30.39R WCI  30
6HR MIN TEMP:  36; 6HR MAX TEMP:  53;

ZIONSVILLE +   FAIR      32  20  61 N6        30.41S WCI  26
6HR MIN TEMP:  32; 6HR MAX TEMP:  47;


$$

INZ033-034-041-042-049-050-058-059-200700-
EAST CENTRAL INDIANA

CITY           SKY/WX    TMP DP  RH WIND       PRES   REMARKS
MUNCIE         FAIR      35  23  61 NW3       30.39R
6HR MIN TEMP:  33; 6HR MAX TEMP:  51;

RICHMOND +     FAIR      34  28  80 N10       30.36S WCI  26

$$

INZ060-061-067>069-081>083-085>088-200700-
SOUTHWEST INDIANA

CITY           SKY/WX    TMP DP  RH WIND       PRES   REMARKS
EVANSVILLE     FAIR      44  29  55 N9        30.40R
6HR MIN TEMP:  44; 6HR MAX TEMP:  52;

HUNTINGBURG +  FAIR      41  26  55 N7        30.40R
6HR MIN TEMP:  41; 6HR MAX TEMP:  52;


$$

INZ062-063-066-070>080-084-089>092-200700-
SOUTH CENTRAL AND SOUTHEAST INDIANA

CITY           SKY/WX    TMP DP  RH WIND       PRES   REMARKS
BLOOMINGTON    FAIR      36  18  48 N5        30.40R WCI  32
6HR MIN TEMP:  36; 6HR MAX TEMP:  52;

SEYMOUR +      FAIR      41  21  45 N9        30.39R

$$





USA.gov is the U.S. government's official web portal to all federal, state and local government web resources and services.